Location: Wells
(51.2093°N, 2.6446°W)
Time: 11:05:06
(UTC+01:00)

LilacSat-2 - Pass Details

Date: 16 March 2026
Orbit: 412 x 424 km, 97.5° (Epoch: 20 April)

Event Time Altitude Azimuth Distance (km) Brightness Sun altitude
Rises 19:47:34 0° 189° (S) 2,391 ? -14.8°
Reaches altitude 10° 19:49:45 10° 201° (SSW) 1,531 ? -15.2°
Maximum altitude 19:52:38 29° 263° (W) 836 ? -15.6°
Drops below altitude 10° 19:55:34 10° 326° (NW) 1,544 ? -16.0°
Sets 19:57:46 0° 338° (NNW) 2,416 ? -16.4°
